Tracking 29892 objects as of 21-Nov-2024
HD Live streaming from Space Station
objects crossing your sky now

ONEWEB-0410

Track ONEWEB-0410 now!
10-day predictions
ONEWEB-0410 is classified as:


NORAD ID: 51622
Int'l Code: 2022-012A
Perigee: 1,198.9 km
Apogee: 1,202.8 km
Inclination: 87.9 °
Period: 109.3 minutes
Semi major axis: 7571 km
RCS: Unknown
Launch date: February 10, 2022
Source: United Kingdom (UK)
Launch site: FRENCH GUIANA (FRGUI)
Your satellite tracking list
Your tracking list is empty




NASA's NSSDC Master Catalog

Two Line Element Set (TLE):
1 51622U 22012A   24325.89921176 -.00000038  00000-0 -13206-3 0  9990
2 51622  87.9073 120.0516 0002522 129.1417 230.9939 13.17648496138201
Source of the keplerian elements: AFSPC